Time,TemperatureF,DewpointF,PressureIn,WindDirection,WindDirectionDegrees,WindSpeedMPH,WindSpeedGustMPH,Humidity,HourlyPrecipIn,Conditions,Clouds,dailyrainin,SoftwareType,DateUTC
2015-07-06 00:00:00,72.4,70.0,30.21,West,270,1.0,4.0,94,0.00,,,0.00,Rainwise IP-100,2015-07-06 04:00:00,
2015-07-06 00:05:00,72.4,70.0,30.20,South,180,1.0,4.0,94,0.00,,,0.00,Rainwise IP-100,2015-07-06 04:05:00,
2015-07-06 00:10:00,72.5,71.0,30.20,East,90,0.0,7.0,94,0.00,,,0.00,Rainwise IP-100,2015-07-06 04:10:00,
2015-07-06 00:15:00,72.5,71.0,30.20,South,180,1.0,6.0,94,0.00,,,0.00,Rainwise IP-100,2015-07-06 04:15:00,
2015-07-06 00:20:00,72.6,70.0,30.20,NW,315,1.0,6.0,93,0.00,,,0.00,Rainwise IP-100,2015-07-06 04:20:00,
2015-07-06 00:25:00,72.6,70.0,30.20,WNW,292,1.0,6.0,93,0.00,,,0.00,Rainwise IP-100,2015-07-06 04:25:00,
2015-07-06 00:30:00,72.6,71.0,30.19,West,270,0.0,4.0,94,0.00,,,0.00,Rainwise IP-100,2015-07-06 04:30:00,
2015-07-06 00:35:00,72.5,70.0,30.19,WNW,292,1.0,4.0,93,0.00,,,0.00,Rainwise IP-100,2015-07-06 04:35:00,
2015-07-06 00:40:00,72.6,70.0,30.19,NW,315,1.0,7.0,93,0.00,,,0.00,Rainwise IP-100,2015-07-06 04:40:00,
2015-07-06 00:45:00,72.6,70.0,30.18,South,180,0.0,7.0,92,0.00,,,0.00,Rainwise IP-100,2015-07-06 04:45:00,
2015-07-06 00:50:00,72.8,70.0,30.18,North,360,0.0,4.0,92,0.00,,,0.00,Rainwise IP-100,2015-07-06 04:50:00,
2015-07-06 00:55:00,72.7,70.0,30.18,NW,315,0.0,2.0,92,0.00,,,0.00,Rainwise IP-100,2015-07-06 04:55:00,
2015-07-06 01:00:00,72.7,70.0,30.18,West,270,0.0,4.0,92,0.00,,,0.00,Rainwise IP-100,2015-07-06 05:00:00,
2015-07-06 01:05:00,72.6,70.0,30.18,West,270,0.0,2.0,92,0.00,,,0.00,Rainwise IP-100,2015-07-06 05:05:00,
2015-07-06 01:10:00,72.5,70.0,30.17,West,270,0.0,2.0,92,0.00,,,0.00,Rainwise IP-100,2015-07-06 05:10:00,
2015-07-06 01:15:00,72.4,70.0,30.17,West,270,0.0,2.0,92,0.00,,,0.00,Rainwise IP-100,2015-07-06 05:15:00,
2015-07-06 01:20:00,72.3,70.0,30.17,NE,45,0.0,2.0,92,0.00,,,0.00,Rainwise IP-100,2015-07-06 05:20:00,
2015-07-06 01:25:00,72.2,70.0,30.17,NE,45,0.0,0.0,93,0.00,,,0.00,Rainwise IP-100,2015-07-06 05:25:00,
2015-07-06 01:30:00,72.1,69.0,30.16,West,270,1.0,2.0,93,0.00,,,0.00,Rainwise IP-100,2015-07-06 05:30:00,
2015-07-06 01:35:00,72.1,69.0,30.16,West,270,0.0,2.0,92,0.00,,,0.00,Rainwise IP-100,2015-07-06 05:35:00,
2015-07-06 01:40:00,72.0,69.0,30.16,West,270,0.0,0.0,93,0.00,,,0.00,Rainwise IP-100,2015-07-06 05:40:00,
2015-07-06 01:45:00,71.9,69.0,30.16,West,270,0.0,2.0,92,0.00,,,0.00,Rainwise IP-100,2015-07-06 05:45:00,
2015-07-06 01:50:00,71.9,69.0,30.15,West,270,0.0,2.0,92,0.00,,,0.00,Rainwise IP-100,2015-07-06 05:50:00,
2015-07-06 01:55:00,71.9,69.0,30.15,West,270,0.0,1.0,92,0.00,,,0.00,Rainwise IP-100,2015-07-06 05:55:00,
2015-07-06 02:00:00,71.9,69.0,30.15,West,270,0.0,0.0,93,0.00,,,0.00,Rainwise IP-100,2015-07-06 06:00:00,
2015-07-06 02:05:00,71.7,69.0,30.14,West,270,0.0,0.0,93,0.00,,,0.00,Rainwise IP-100,2015-07-06 06:05:00,
2015-07-06 02:10:00,71.5,69.0,30.14,West,270,0.0,0.0,93,0.00,,,0.00,Rainwise IP-100,2015-07-06 06:10:00,
2015-07-06 02:15:00,71.3,69.0,30.13,West,270,0.0,0.0,95,0.00,,,0.00,Rainwise IP-100,2015-07-06 06:15:00,
2015-07-06 02:20:00,71.2,69.0,30.12,West,270,0.0,0.0,95,0.00,,,0.00,Rainwise IP-100,2015-07-06 06:20:00,
2015-07-06 02:25:00,71.1,69.0,30.12,West,270,2.0,0.0,95,0.00,,,0.00,Rainwise IP-100,2015-07-06 06:25:00,
2015-07-06 02:30:00,71.4,70.0,30.12,West,270,0.0,2.0,96,0.00,,,0.00,Rainwise IP-100,2015-07-06 06:30:00,
2015-07-06 02:35:00,71.6,70.0,30.12,West,270,0.0,2.0,96,0.00,,,0.00,Rainwise IP-100,2015-07-06 06:35:00,
2015-07-06 02:40:00,71.6,70.0,30.12,West,270,0.0,0.0,95,0.00,,,0.00,Rainwise IP-100,2015-07-06 06:40:00,
2015-07-06 02:45:00,71.6,70.0,30.11,West,270,0.0,0.0,96,0.00,,,0.00,Rainwise IP-100,2015-07-06 06:45:00,
2015-07-06 02:50:00,71.5,70.0,30.10,SSE,157,1.0,1.0,96,0.00,,,0.00,Rainwise IP-100,2015-07-06 06:50:00,
2015-07-06 02:55:00,71.5,70.0,30.10,SE,135,1.0,2.0,96,0.00,,,0.00,Rainwise IP-100,2015-07-06 06:55:00,
2015-07-06 03:00:00,71.3,70.0,30.09,SE,135,1.0,4.0,96,0.00,,,0.00,Rainwise IP-100,2015-07-06 07:00:00,
2015-07-06 03:05:00,71.2,70.0,30.09,East,90,1.0,3.0,97,0.00,,,0.00,Rainwise IP-100,2015-07-06 07:05:00,
2015-07-06 03:10:00,71.1,70.0,30.09,SE,135,0.0,4.0,97,0.00,,,0.00,Rainwise IP-100,2015-07-06 07:10:00,
2015-07-06 03:15:00,70.9,70.0,30.10,SE,135,0.0,2.0,97,0.00,,,0.00,Rainwise IP-100,2015-07-06 07:15:00,
2015-07-06 03:20:00,70.9,70.0,30.10,SE,135,0.0,0.0,98,0.00,,,0.00,Rainwise IP-100,2015-07-06 07:20:00,
2015-07-06 03:25:00,70.8,70.0,30.10,SE,135,0.0,2.0,98,0.00,,,0.00,Rainwise IP-100,2015-07-06 07:25:00,
2015-07-06 03:30:00,70.7,70.0,30.09,SE,135,0.0,2.0,98,0.00,,,0.00,Rainwise IP-100,2015-07-06 07:30:00,
2015-07-06 03:35:00,70.6,70.0,30.09,SE,135,0.0,0.0,98,0.00,,,0.00,Rainwise IP-100,2015-07-06 07:35:00,
2015-07-06 03:40:00,70.4,70.0,30.09,SE,135,0.0,0.0,99,0.00,,,0.00,Rainwise IP-100,2015-07-06 07:40:00,
2015-07-06 03:45:00,70.4,70.0,30.08,SE,135,0.0,0.0,99,0.00,,,0.00,Rainwise IP-100,2015-07-06 07:45:00,
2015-07-06 03:50:00,70.3,69.0,30.08,SE,135,0.0,0.0,99,0.00,,,0.00,Rainwise IP-100,2015-07-06 07:50:00,
2015-07-06 03:55:00,70.2,69.0,30.08,SE,135,0.0,0.0,99,0.00,,,0.00,Rainwise IP-100,2015-07-06 07:55:00,
2015-07-06 04:00:00,70.1,69.0,30.08,SE,135,0.0,0.0,99,0.00,,,0.00,Rainwise IP-100,2015-07-06 08:00:00,
2015-07-06 04:05:00,70.1,69.0,30.08,SE,135,1.0,0.0,99,0.00,,,0.00,Rainwise IP-100,2015-07-06 08:05:00,
2015-07-06 04:10:00,70.4,70.0,30.07,SE,135,1.0,2.0,99,0.00,,,0.00,Rainwise IP-100,2015-07-06 08:10:00,
2015-07-06 04:15:00,70.7,70.0,30.07,SE,135,1.0,2.0,99,0.00,,,0.00,Rainwise IP-100,2015-07-06 08:15:00,
2015-07-06 04:20:00,71.0,70.0,30.06,East,90,2.0,4.0,98,0.00,,,0.00,Rainwise IP-100,2015-07-06 08:20:00,
2015-07-06 04:25:00,71.5,71.0,30.06,ESE,112,1.0,3.0,97,0.00,,,0.00,Rainwise IP-100,2015-07-06 08:25:00,
2015-07-06 04:30:00,71.7,71.0,30.06,ESE,112,1.0,2.0,97,0.00,,,0.00,Rainwise IP-100,2015-07-06 08:30:00,
2015-07-06 04:35:00,71.9,71.0,30.07,ESE,112,0.0,2.0,96,0.00,,,0.00,Rainwise IP-100,2015-07-06 08:35:00,
2015-07-06 04:40:00,71.8,70.0,30.07,ESE,112,0.0,0.0,96,0.00,,,0.00,Rainwise IP-100,2015-07-06 08:40:00,
2015-07-06 04:45:00,71.7,70.0,30.08,ESE,112,0.0,0.0,96,0.00,,,0.00,Rainwise IP-100,2015-07-06 08:45:00,
2015-07-06 04:50:00,71.8,71.0,30.08,ESE,112,0.0,0.0,97,0.00,,,0.00,Rainwise IP-100,2015-07-06 08:50:00,
2015-07-06 04:55:00,72.1,71.0,30.08,ESE,112,0.0,1.0,97,0.00,,,0.00,Rainwise IP-100,2015-07-06 08:55:00,
2015-07-06 05:00:00,72.3,71.0,30.08,ESE,112,0.0,0.0,96,0.00,,,0.00,Rainwise IP-100,2015-07-06 09:00:00,
2015-07-06 05:05:00,72.4,71.0,30.08,ESE,112,0.0,0.0,95,0.00,,,0.00,Rainwise IP-100,2015-07-06 09:05:00,
2015-07-06 05:10:00,72.5,71.0,30.08,ESE,112,0.0,0.0,96,0.00,,,0.00,Rainwise IP-100,2015-07-06 09:10:00,
2015-07-06 05:15:00,72.8,72.0,30.08,ESE,112,0.0,0.0,97,0.00,,,0.00,Rainwise IP-100,2015-07-06 09:15:00,
2015-07-06 05:20:00,73.5,72.0,30.08,East,90,2.0,3.0,94,0.00,,,0.00,Rainwise IP-100,2015-07-06 09:20:00,
2015-07-06 05:25:00,74.3,72.0,30.08,East,90,0.0,2.0,92,0.00,,,0.00,Rainwise IP-100,2015-07-06 09:25:00,
2015-07-06 05:30:00,74.5,72.0,30.08,East,90,0.0,0.0,91,0.00,,,0.00,Rainwise IP-100,2015-07-06 09:30:00,
2015-07-06 05:35:00,74.6,72.0,30.08,East,90,0.0,0.0,91,0.00,,,0.00,Rainwise IP-100,2015-07-06 09:35:00,
2015-07-06 05:40:00,74.5,72.0,30.08,East,90,0.0,0.0,91,0.00,,,0.00,Rainwise IP-100,2015-07-06 09:40:00,
2015-07-06 05:45:00,74.5,72.0,30.08,East,90,0.0,0.0,91,0.00,,,0.00,Rainwise IP-100,2015-07-06 09:45:00,
2015-07-06 05:50:00,74.6,72.0,30.08,East,90,0.0,0.0,91,0.00,,,0.00,Rainwise IP-100,2015-07-06 09:50:00,
2015-07-06 05:55:00,74.6,72.0,30.09,East,90,0.0,0.0,91,0.00,,,0.00,Rainwise IP-100,2015-07-06 09:55:00,
2015-07-06 06:00:00,74.6,72.0,30.09,East,90,0.0,0.0,91,0.00,,,0.00,Rainwise IP-100,2015-07-06 10:00:00,
2015-07-06 06:05:00,74.7,72.0,30.09,East,90,0.0,0.0,91,0.00,,,0.00,Rainwise IP-100,2015-07-06 10:05:00,
2015-07-06 06:10:00,74.8,72.0,30.09,East,90,0.0,0.0,92,0.00,,,0.00,Rainwise IP-100,2015-07-06 10:10:00,
2015-07-06 06:15:00,74.9,72.0,30.10,East,90,0.0,0.0,92,0.00,,,0.00,Rainwise IP-100,2015-07-06 10:15:00,
2015-07-06 06:20:00,75.2,72.0,30.11,East,90,0.0,0.0,92,0.00,,,0.00,Rainwise IP-100,2015-07-06 10:20:00,
2015-07-06 06:25:00,75.5,72.0,30.12,East,90,0.0,0.0,90,0.00,,,0.00,Rainwise IP-100,2015-07-06 10:25:00,
2015-07-06 06:30:00,75.6,72.0,30.12,East,90,0.0,0.0,91,0.00,,,0.00,Rainwise IP-100,2015-07-06 10:30:00,
2015-07-06 06:35:00,75.7,72.0,30.12,East,90,0.0,0.0,90,0.00,,,0.00,Rainwise IP-100,2015-07-06 10:35:00,
2015-07-06 06:40:00,75.8,72.0,30.13,East,90,0.0,0.0,90,0.00,,,0.00,Rainwise IP-100,2015-07-06 10:40:00,
2015-07-06 06:45:00,75.8,72.0,30.13,East,90,0.0,0.0,90,0.00,,,0.00,Rainwise IP-100,2015-07-06 10:45:00,
2015-07-06 06:50:00,75.7,72.0,30.13,East,90,0.0,0.0,91,0.00,,,0.00,Rainwise IP-100,2015-07-06 10:50:00,
2015-07-06 06:55:00,75.6,72.0,30.13,East,90,0.0,0.0,91,0.00,,,0.00,Rainwise IP-100,2015-07-06 10:55:00,
2015-07-06 07:00:00,75.4,72.0,30.14,East,90,1.0,1.0,91,0.00,,,0.00,Rainwise IP-100,2015-07-06 11:00:00,
2015-07-06 07:05:00,75.2,72.0,30.14,West,270,0.0,2.0,92,0.00,,,0.00,Rainwise IP-100,2015-07-06 11:05:00,
2015-07-06 07:10:00,75.1,73.0,30.14,West,270,0.0,2.0,93,0.00,,,0.00,Rainwise IP-100,2015-07-06 11:10:00,
2015-07-06 07:15:00,74.9,73.0,30.14,NW,315,0.0,2.0,93,0.00,,,0.00,Rainwise IP-100,2015-07-06 11:15:00,
2015-07-06 07:20:00,74.9,73.0,30.14,NW,315,0.0,0.0,95,0.00,,,0.00,Rainwise IP-100,2015-07-06 11:20:00,
2015-07-06 07:25:00,74.9,73.0,30.14,NW,315,0.0,2.0,95,0.00,,,0.00,Rainwise IP-100,2015-07-06 11:25:00,
2015-07-06 07:30:00,74.9,73.0,30.14,NW,315,0.0,2.0,96,0.00,,,0.00,Rainwise IP-100,2015-07-06 11:30:00,
2015-07-06 07:35:00,74.9,73.0,30.15,NW,315,0.0,1.0,96,0.00,,,0.00,Rainwise IP-100,2015-07-06 11:35:00,
2015-07-06 07:40:00,75.1,73.0,30.15,West,270,0.0,2.0,95,0.00,,,0.00,Rainwise IP-100,2015-07-06 11:40:00,
2015-07-06 07:45:00,75.2,73.0,30.15,West,270,0.0,1.0,95,0.00,,,0.00,Rainwise IP-100,2015-07-06 11:45:00,
2015-07-06 07:50:00,75.4,74.0,30.16,West,270,0.0,0.0,95,0.00,,,0.00,Rainwise IP-100,2015-07-06 11:50:00,
2015-07-06 07:55:00,75.5,73.0,30.16,West,270,0.0,0.0,93,0.00,,,0.00,Rainwise IP-100,2015-07-06 11:55:00,
2015-07-06 08:00:00,75.7,73.0,30.16,West,270,0.0,0.0,94,0.00,,,0.00,Rainwise IP-100,2015-07-06 12:00:00,
2015-07-06 08:05:00,75.9,74.0,30.16,West,270,0.0,0.0,94,0.00,,,0.00,Rainwise IP-100,2015-07-06 12:05:00,
2015-07-06 08:10:00,76.2,74.0,30.17,West,270,0.0,0.0,93,0.00,,,0.00,Rainwise IP-100,2015-07-06 12:10:00,
2015-07-06 08:15:00,76.3,73.0,30.17,NW,315,2.0,2.0,92,0.00,,,0.00,Rainwise IP-100,2015-07-06 12:15:00,
2015-07-06 08:20:00,76.4,73.0,30.17,NNW,337,0.0,2.0,91,0.00,,,0.00,Rainwise IP-100,2015-07-06 12:20:00,
2015-07-06 08:25:00,76.5,73.0,30.17,NNW,337,1.0,2.0,89,0.00,,,0.00,Rainwise IP-100,2015-07-06 12:25:00,
2015-07-06 08:30:00,76.5,72.0,30.18,NNW,337,0.0,2.0,88,0.00,,,0.00,Rainwise IP-100,2015-07-06 12:30:00,
2015-07-06 08:35:00,76.7,73.0,30.18,NNW,337,0.0,0.0,88,0.00,,,0.00,Rainwise IP-100,2015-07-06 12:35:00,
2015-07-06 08:40:00,76.9,73.0,30.18,NNW,337,0.0,0.0,87,0.00,,,0.00,Rainwise IP-100,2015-07-06 12:40:00,
2015-07-06 08:45:00,77.2,73.0,30.18,NNW,337,0.0,1.0,87,0.00,,,0.00,Rainwise IP-100,2015-07-06 12:45:00,
2015-07-06 08:50:00,77.5,73.0,30.18,NNW,337,0.0,1.0,85,0.00,,,0.00,Rainwise IP-100,2015-07-06 12:50:00,
2015-07-06 08:55:00,77.8,72.0,30.18,NNW,337,0.0,1.0,84,0.00,,,0.00,Rainwise IP-100,2015-07-06 12:55:00,
2015-07-06 09:00:00,78.1,73.0,30.18,NNW,337,0.0,0.0,85,0.00,,,0.00,Rainwise IP-100,2015-07-06 13:00:00,
2015-07-06 09:05:00,78.5,73.0,30.18,NNW,337,0.0,0.0,84,0.00,,,0.00,Rainwise IP-100,2015-07-06 13:05:00,
2015-07-06 09:10:00,78.7,73.0,30.18,North,360,0.0,1.0,84,0.00,,,0.00,Rainwise IP-100,2015-07-06 13:10:00,
2015-07-06 09:15:00,78.9,73.0,30.19,North,360,0.0,0.0,84,0.00,,,0.00,Rainwise IP-100,2015-07-06 13:15:00,
2015-07-06 09:20:00,79.3,74.0,30.19,North,360,0.0,0.0,84,0.00,,,0.00,Rainwise IP-100,2015-07-06 13:20:00,
2015-07-06 09:25:00,79.7,74.0,30.19,North,360,0.0,0.0,84,0.00,,,0.00,Rainwise IP-100,2015-07-06 13:25:00,
2015-07-06 09:30:00,80.1,74.0,30.19,North,360,0.0,1.0,83,0.00,,,0.00,Rainwise IP-100,2015-07-06 13:30:00,
2015-07-06 09:35:00,80.5,74.0,30.20,North,360,0.0,1.0,83,0.00,,,0.00,Rainwise IP-100,2015-07-06 13:35:00,
2015-07-06 09:40:00,80.9,75.0,30.20,North,360,0.0,0.0,82,0.00,,,0.00,Rainwise IP-100,2015-07-06 13:40:00,
2015-07-06 09:45:00,81.2,74.0,30.20,North,360,0.0,1.0,81,0.00,,,0.00,Rainwise IP-100,2015-07-06 13:45:00,
2015-07-06 09:50:00,81.5,75.0,30.20,North,360,0.0,1.0,81,0.00,,,0.00,Rainwise IP-100,2015-07-06 13:50:00,
2015-07-06 09:55:00,81.8,74.0,30.20,North,360,0.0,1.0,79,0.00,,,0.00,Rainwise IP-100,2015-07-06 13:55:00,
2015-07-06 10:00:00,81.9,75.0,30.20,North,360,0.0,0.0,80,0.00,,,0.00,Rainwise IP-100,2015-07-06 14:00:00,
2015-07-06 10:05:00,82.3,75.0,30.20,North,360,0.0,0.0,79,0.00,,,0.00,Rainwise IP-100,2015-07-06 14:05:00,
2015-07-06 10:10:00,82.5,74.0,30.20,North,360,0.0,0.0,76,0.00,,,0.00,Rainwise IP-100,2015-07-06 14:10:00,
2015-07-06 10:15:00,82.9,75.0,30.20,North,360,0.0,1.0,77,0.00,,,0.00,Rainwise IP-100,2015-07-06 14:15:00,
2015-07-06 10:20:00,83.4,75.0,30.21,North,360,0.0,0.0,76,0.00,,,0.00,Rainwise IP-100,2015-07-06 14:20:00,
2015-07-06 10:25:00,83.6,75.0,30.21,North,360,0.0,1.0,76,0.00,,,0.00,Rainwise IP-100,2015-07-06 14:25:00,
2015-07-06 10:30:00,83.7,75.0,30.21,North,360,1.0,0.0,76,0.00,,,0.00,Rainwise IP-100,2015-07-06 14:30:00,
2015-07-06 10:35:00,83.7,74.0,30.21,NNW,337,0.0,1.0,74,0.00,,,0.00,Rainwise IP-100,2015-07-06 14:35:00,
2015-07-06 10:40:00,83.8,74.0,30.21,NNW,337,0.0,2.0,74,0.00,,,0.00,Rainwise IP-100,2015-07-06 14:40:00,
2015-07-06 10:45:00,83.9,75.0,30.22,NNW,337,0.0,2.0,75,0.00,,,0.00,Rainwise IP-100,2015-07-06 14:45:00,
2015-07-06 10:50:00,84.2,75.0,30.22,NNW,337,0.0,1.0,75,0.00,,,0.00,Rainwise IP-100,2015-07-06 14:50:00,
2015-07-06 10:55:00,84.5,75.0,30.22,NNW,337,2.0,2.0,73,0.00,,,0.00,Rainwise IP-100,2015-07-06 14:55:00,
2015-07-06 11:00:00,84.7,75.0,30.22,NNE,22,0.0,2.0,74,0.00,,,0.00,Rainwise IP-100,2015-07-06 15:00:00,
2015-07-06 11:05:00,84.9,75.0,30.22,NNE,22,0.0,1.0,73,0.00,,,0.00,Rainwise IP-100,2015-07-06 15:05:00,
2015-07-06 11:10:00,84.9,74.0,30.23,NNE,22,0.0,2.0,72,0.00,,,0.00,Rainwise IP-100,2015-07-06 15:10:00,
2015-07-06 11:15:00,85.1,75.0,30.23,East,90,1.0,0.0,73,0.00,,,0.00,Rainwise IP-100,2015-07-06 15:15:00,
2015-07-06 11:20:00,85.4,76.0,30.23,East,90,0.0,2.0,74,0.00,,,0.00,Rainwise IP-100,2015-07-06 15:20:00,
2015-07-06 11:25:00,85.7,76.0,30.23,NNE,22,0.0,1.0,74,0.00,,,0.00,Rainwise IP-100,2015-07-06 15:25:00,
2015-07-06 11:30:00,86.0,76.0,30.23,NNE,22,0.0,0.0,74,0.00,,,0.00,Rainwise IP-100,2015-07-06 15:30:00,
2015-07-06 11:35:00,86.3,76.0,30.24,NNE,22,0.0,1.0,73,0.00,,,0.00,Rainwise IP-100,2015-07-06 15:35:00,
2015-07-06 11:40:00,86.3,76.0,30.24,NNE,22,0.0,2.0,74,0.00,,,0.00,Rainwise IP-100,2015-07-06 15:40:00,
2015-07-06 11:45:00,86.0,76.0,30.24,NNE,22,0.0,2.0,74,0.00,,,0.00,Rainwise IP-100,2015-07-06 15:45:00,
2015-07-06 11:50:00,86.0,76.0,30.24,North,360,0.0,2.0,74,0.00,,,0.00,Rainwise IP-100,2015-07-06 15:50:00,
2015-07-06 11:55:00,86.1,76.0,30.24,North,360,0.0,1.0,74,0.00,,,0.00,Rainwise IP-100,2015-07-06 15:55:00,
2015-07-06 12:00:00,86.3,76.0,30.24,North,360,0.0,2.0,73,0.00,,,0.00,Rainwise IP-100,2015-07-06 16:00:00,
2015-07-06 12:05:00,86.3,77.0,30.24,North,360,0.0,0.0,75,0.00,,,0.00,Rainwise IP-100,2015-07-06 16:05:00,
2015-07-06 12:10:00,86.6,77.0,30.24,NNW,337,2.0,2.0,74,0.00,,,0.00,Rainwise IP-100,2015-07-06 16:10:00,
2015-07-06 12:15:00,86.8,76.0,30.24,NNW,337,0.0,2.0,71,0.00,,,0.00,Rainwise IP-100,2015-07-06 16:15:00,
2015-07-06 12:20:00,87.1,76.0,30.24,North,360,0.0,1.0,72,0.00,,,0.00,Rainwise IP-100,2015-07-06 16:20:00,
2015-07-06 12:25:00,87.4,77.0,30.24,North,360,0.0,2.0,73,0.00,,,0.00,Rainwise IP-100,2015-07-06 16:25:00,
2015-07-06 12:30:00,87.9,77.0,30.24,NW,315,0.0,2.0,71,0.00,,,0.00,Rainwise IP-100,2015-07-06 16:30:00,
2015-07-06 12:35:00,88.4,77.0,30.24,ESE,112,1.0,0.0,69,0.00,,,0.00,Rainwise IP-100,2015-07-06 16:35:00,
2015-07-06 12:40:00,88.7,77.0,30.24,SE,135,0.0,2.0,70,0.00,,,0.00,Rainwise IP-100,2015-07-06 16:40:00,
2015-07-06 12:45:00,89.6,78.0,30.24,SE,135,0.0,1.0,69,0.00,,,0.00,Rainwise IP-100,2015-07-06 16:45:00,
2015-07-06 12:50:00,89.9,77.0,30.25,ESE,112,0.0,2.0,67,0.00,,,0.00,Rainwise IP-100,2015-07-06 16:50:00,
2015-07-06 12:55:00,89.7,77.0,30.25,SE,135,1.0,2.0,67,0.00,,,0.00,Rainwise IP-100,2015-07-06 16:55:00,
2015-07-06 13:00:00,89.3,76.0,30.25,South,180,0.0,2.0,66,0.00,,,0.00,Rainwise IP-100,2015-07-06 17:00:00,
2015-07-06 13:05:00,89.2,76.0,30.25,ESE,112,1.0,2.0,67,0.00,,,0.00,Rainwise IP-100,2015-07-06 17:05:00,
2015-07-06 13:10:00,89.1,76.0,30.24,SE,135,1.0,4.0,67,0.00,,,0.00,Rainwise IP-100,2015-07-06 17:10:00,
2015-07-06 13:15:00,89.3,77.0,30.24,SSE,157,0.0,4.0,68,0.00,,,0.00,Rainwise IP-100,2015-07-06 17:15:00,
2015-07-06 13:20:00,89.7,76.0,30.24,South,180,2.0,2.0,64,0.00,,,0.00,Rainwise IP-100,2015-07-06 17:20:00,
2015-07-06 13:25:00,90.3,77.0,30.24,NE,45,1.0,2.0,67,0.00,,,0.00,Rainwise IP-100,2015-07-06 17:25:00,
2015-07-06 13:30:00,90.4,77.0,30.24,SE,135,0.0,2.0,66,0.00,,,0.00,Rainwise IP-100,2015-07-06 17:30:00,
2015-07-06 13:35:00,90.6,77.0,30.24,East,90,2.0,2.0,65,0.00,,,0.00,Rainwise IP-100,2015-07-06 17:35:00,
2015-07-06 13:40:00,90.5,77.0,30.24,SE,135,0.0,7.0,66,0.00,,,0.00,Rainwise IP-100,2015-07-06 17:40:00,
2015-07-06 13:45:00,90.8,78.0,30.24,East,90,0.0,2.0,68,0.00,,,0.00,Rainwise IP-100,2015-07-06 17:45:00,
2015-07-06 13:50:00,91.0,77.0,30.24,NNE,22,1.0,2.0,65,0.00,,,0.00,Rainwise IP-100,2015-07-06 17:50:00,
2015-07-06 13:55:00,91.3,77.0,30.24,East,90,2.0,3.0,65,0.00,,,0.00,Rainwise IP-100,2015-07-06 17:55:00,